Regional Weather Roundup
Issued by NWS

Home | Current Version | Previous Version | Graphics & Text | Print | Product List | Glossary On
Versions: 1 2 3 4 5 6 7 8 9 10 11 12 13 14 15 16 17 18 19 20 21 22 23 24 25 26 27 28 29 30 31 32 33 34 35 36 37 38 39 40 41 42 43 44 45 46 47 48 49 50
000
ASUS43 KFSD 260502
RWRSD

WEATHER ROUNDUP FOR SOUTH DAKOTA
NATIONAL WEATHER SERVICE SIOUX FALLS SD
1100 PM CST TUE NOV 25 2014

NOTE: "FAIR" INDICATES FEW OR NO CLOUDS BELOW 12,000 FEET WITH NO
SIGNIFICANT WEATHER AND/OR OBSTRUCTIONS TO VISIBILITY.


SDZ001>005-009-010-012>017-260600-
NORTHWEST AND NORTH CENTRAL SOUTH DAKOTA

CITY           SKY/WX    TMP DP  RH WIND       PRES   REMARKS
BUFFALO          N/A     25  20  81 N22G31    30.00R WCI  10
FAITH            N/A     28  21  75 N24G41    29.96R WCI  14
MOBRIDGE       CLOUDY    33  29  85 NW24G36   29.81R WCI  20
$$

SDZ012>016-024>037-041>051-057-063-072>074-260600-
SOUTHWEST AND SOUTH CENTRAL SOUTH DAKOTA

CITY           SKY/WX    TMP DP  RH WIND       PRES   REMARKS
RAPID CTY ARPT MOCLDY    32  23  69 NW31G41   29.98R WCI  17
PIERRE         CLOUDY    37  30  75 NW26G33   29.84R
CUSTER         CLOUDY    25  15  66 NW14G24   29.92R WCI  13
ELLSWORTH AFB  CLOUDY    32  24  72 NW29G37   29.98R WCI  18
PHILIP         CLOUDY    35  27  72 NW24G32   29.92R WCI  23
PINE RIDGE     CLOUDY    34  26  72 NW8       29.98R WCI  27
WINNER         CLOUDY    38  29  70 NW18G28   29.85R
$$

SDZ004>011-016>023-039-040-260600-
NORTHEAST SOUTH DAKOTA

CITY           SKY/WX    TMP DP  RH WIND       PRES   REMARKS
ABERDEEN       CLOUDY    31  28  89 E9        29.83R WCI  23
WATERTOWN      LGT SNOW  29  26  89 SE8       29.80S FOG     WCI  21
SISSETON         N/A     24  23  96 E7        29.90R WCI  16
$$

SDZ017-020-022-023-036>040-048>070-260600-
SOUTHEAST SOUTH DAKOTA

CITY           SKY/WX    TMP DP  RH WIND       PRES   REMARKS
SIOUX FALLS    LGT SNOW  32  30  92 SE9       29.81S FOG     WCI  24
HURON          CLOUDY    31  30  96 CALM      29.80R
MITCHELL       CLOUDY    33  32  96 W5        29.81R WCI  29
YANKTON        CLOUDY    36  34  93 W10       29.82R
$$

ABBREVIATIONS USED IN REMARKS
   TC - TEMPERATURE IN CELSIUS
  WCI - WIND CHILL INDEX
   HX - HEAT INDEX
  VSB - VISIBILITY



USA.gov is the U.S. government's official web portal to all federal, state and local government web resources and services.